Вернуться в каталог

CZ-6A DEB

АктивенPO
NORAD 60819·DEBRIS·🇨🇳 China

Запущен Aug 6, 2024 с Taiyuan Satellite Launch Center

Loading…

Ближайшие Пролёты (ближайшие 24 часа)

TLE

СвежийSource: Space-Track

Эпоха: Sep 14, 2026, 11:14 UTC

1 60819U 24140GW  26257.46874733  .00000440  00000-0  66988-4 0  9998
2 60819  89.0282 261.2947 0160889 275.1960  83.0912 14.63759415111425

Отслеживайте CZ-6A DEB в реальном времени с AllMySat

Download on the App Store